TimeCST,TemperatureF,Dew PointF,Humidity,Sea Level PressureIn,VisibilityMPH,Wind Direction,Wind SpeedMPH,Gust SpeedMPH,PrecipitationIn,Events,Conditions,WindDirDegrees,DateUTC
12:53 AM,18.0,10.9,74,30.22,10.0,South,11.5,-,N/A,,Clear,180,2011-12-20 06:53:00
1:53 AM,16.0,9.0,74,30.18,10.0,South,9.2,-,N/A,,Clear,190,2011-12-20 07:53:00
2:53 AM,16.0,10.0,77,30.16,10.0,South,10.4,-,N/A,,Clear,190,2011-12-20 08:53:00
3:53 AM,17.1,10.0,74,30.10,10.0,South,12.7,-,N/A,,Clear,180,2011-12-20 09:53:00
4:53 AM,18.0,10.9,74,30.05,10.0,South,15.0,-,N/A,,Clear,180,2011-12-20 10:53:00
5:53 AM,17.1,10.9,77,30.01,10.0,South,15.0,-,N/A,,Clear,180,2011-12-20 11:53:00
6:53 AM,18.0,10.9,74,29.99,10.0,South,16.1,-,N/A,,Clear,180,2011-12-20 12:53:00
7:53 AM,18.0,10.9,74,29.96,10.0,South,16.1,-,N/A,,Clear,180,2011-12-20 13:53:00
8:53 AM,19.0,12.0,74,29.94,10.0,South,15.0,-,N/A,,Clear,180,2011-12-20 14:53:00
9:53 AM,21.9,15.1,75,29.91,10.0,South,16.1,-,N/A,,Clear,180,2011-12-20 15:53:00
10:53 AM,27.0,18.0,69,29.86,10.0,South,18.4,-,N/A,,Clear,190,2011-12-20 16:53:00
11:53 AM,35.1,18.0,50,29.78,10.0,South,24.2,31.1,N/A,,Clear,180,2011-12-20 17:53:00
1:53 PM,42.1,14.0,32,29.71,10.0,SSW,20.7,28.8,N/A,,Clear,200,2011-12-20 19:53:00
2:53 PM,42.1,15.1,34,29.68,10.0,SSW,13.8,-,N/A,,Clear,200,2011-12-20 20:53:00
3:53 PM,39.9,16.0,38,29.65,10.0,South,15.0,-,N/A,,Clear,190,2011-12-20 21:53:00
4:53 PM,37.0,17.1,44,29.65,10.0,SSW,16.1,-,N/A,,Clear,200,2011-12-20 22:53:00
5:53 PM,34.0,17.1,50,29.65,10.0,South,9.2,-,N/A,,Clear,190,2011-12-20 23:53:00
6:53 PM,30.9,18.0,59,29.65,10.0,South,9.2,-,N/A,,Clear,180,2011-12-21 00:53:00
7:53 PM,30.9,18.0,59,29.64,10.0,South,9.2,-,N/A,,Clear,180,2011-12-21 01:53:00
8:53 PM,30.9,18.0,59,29.63,10.0,South,10.4,-,N/A,,Mostly Cloudy,180,2011-12-21 02:53:00
9:53 PM,32.0,18.0,56,29.62,10.0,South,11.5,-,N/A,,Mostly Cloudy,170,2011-12-21 03:53:00
10:53 PM,30.0,18.0,61,29.62,10.0,South,6.9,-,N/A,,Overcast,190,2011-12-21 04:53:00
11:53 PM,30.9,18.0,59,29.60,10.0,South,10.4,-,N/A,,Overcast,190,2011-12-21 05:53:00